[[{"header":{"parameterUnit":"m.s-1","parameterCategory":1,"la1":30.2991,"la2":30.254,"lo1":-89.0895,"lo2":-89.0444,"dy":0.0017,"dx":0.0017,"nx":28,"ny":28,"refTime":"2025-09-01T21:00:00:Z","depth":0,"parameterNumber":2,"parameterNumberName":"U-component_of_WINDS"},"data":[0,0,0,0,0,0,0,0,0,0,0,0,0,0,0,0,0,0,0,0,0,0,0,0,0,0,0,0,0,0,0,0,0,0,0,0,0,0,0,0,0,0,0,0,0,0,0,0,0,0,0,0,0,0,0,0,0,0,-1.3624,-1.3623,0,-1.3593,-1.3593,-1.3593,-1.3529,-1.3528,-1.3527,-1.3525,-1.3495,-1.3496,-1.3496,0,0,0,0,0,0,0,0,0,0,0,0,0,-1.3629,-1.3629,-1.3624,-1.3623,-1.3623,-1.3593,-1.3593,-1.3593,-1.3529,-1.3528,-1.3526,-1.3525,-1.3495,-1.3496,-1.3496,0,0,0,0,0,0,0,0,0,0,0,0,0,-1.3616,-1.363,-1.3624,-1.3588,-1.3584,-1.3594,-1.3593,-1.3593,-1.353,-1.3528,-1.3526,-1.3524,-1.3495,-1.3496,-1.3496,-1.3538,0,0,-1.3498,-1.3498,0,0,0,0,0,0,0,0,-1.3617,-1.3616,-1.3593,-1.359,-1.3586,-1.3563,-1.3584,-1.3574,-1.353,-1.355,-1.3525,-1.3523,-1.352,-1.3518,-1.3517,-1.3537,-1.3536,-1.3498,-1.3498,-1.3499,-1.3499,0,0,0,0,0,0,0,-1.3618,-1.3617,-1.3612,-1.3593,-1.3589,-1.3574,-1.357,-1.3582,-1.3546,-1.3549,-1.3544,-1.3541,-1.3517,-1.3516,-1.3515,-1.3535,-1.3498,-1.3499,-1.3499,-1.3499,-1.3591,-1.3593,0,0,0,0,0,0,-1.3624,-1.3618,-1.3613,-1.3611,-1.3597,-1.3575,-1.3571,-1.3573,-1.3546,-1.354,-1.3543,-1.3538,-1.3516,-1.3515,-1.3514,-1.3562,-1.3499,-1.3499,-1.35,-1.3589,-1.3591,-1.3594,0,0,0,0,0,0,-1.3624,-1.3624,-1.3614,-1.3613,-1.3611,-1.3577,-1.358,-1.3573,-1.3572,-1.3541,-1.3535,-1.3548,-1.3514,-1.3513,-1.3533,-1.3561,-1.35,-1.35,-1.3586,-1.359,-1.3592,-1.3659,0,0,0,0,0,0,-1.3624,-1.3624,-1.3639,-1.3614,-1.3611,-1.3633,-1.3581,-1.3574,-1.3573,-1.3567,-1.3545,-1.3539,-1.3513,-1.3533,-1.3534,-1.356,-1.3501,-1.3584,-1.3588,-1.3592,-1.3655,-1.3664,-1.3673,0,0,0,0,0,-1.3625,-1.3659,-1.364,-1.364,-1.3629,-1.3635,-1.3633,-1.3602,-1.3575,-1.359,-1.3571,-1.354,-1.3558,-1.3535,-1.3536,-1.3563,-1.3582,-1.3587,-1.3591,-1.3651,-1.3663,-1.3673,0,0,0,0,0,0,-1.3688,-1.3655,-1.3634,-1.366,-1.3651,-1.3624,-1.3642,-1.3615,-1.3613,-1.3607,-1.3569,-1.3565,-1.359,-1.3579,-1.3554,-1.3604,-1.3565,-1.357,-1.361,-1.3621,-1.363,-1.3632,-1.3501,0,0,0,0,0,-1.3705,-1.3712,-1.3683,-1.371,-1.3706,-1.3675,-1.3676,-1.3653,-1.3642,-1.3637,-1.362,-1.361,-1.3614,-1.3617,-1.3618,-1.3653,-1.3648,-1.3673,-1.3682,-1.3689,-1.3694,-1.3713,-1.3724,-1.3609,-1.3609,-1.3609,0,0,-1.374,-1.3723,-1.373,-1.3722,-1.3712,-1.3721,-1.3672,-1.3683,-1.3689,-1.3639,-1.3657,-1.3644,-1.3631,-1.3659,-1.3671,-1.365,-1.3725,-1.3695,-1.3702,-1.3702,-1.3719,-1.373,-1.374,-1.3612,-1.3612,-1.3611,0,0,-1.3809,-1.3797,-1.3818,-1.3809,-1.3794,-1.3774,-1.378,-1.3757,-1.3747,-1.3764,-1.3727,-1.3735,-1.3741,-1.3734,-1.3731,-1.3801,-1.3772,-1.3802,-1.385,-1.3869,-1.3878,-1.3886,-1.3911,-1.3921,-1.3807,-1.3807,-1.3807,0,-1.3855,-1.3866,-1.3832,-1.3846,-1.3844,-1.38,-1.3822,-1.3815,-1.3802,-1.3803,-1.378,-1.3789,-1.3777,-1.3804,-1.3821,-1.382,-1.3826,-1.3804,-1.3879,-1.3887,-1.3894,-1.3917,-1.3927,-1.3811,-1.3811,-1.381,-1.381,0,-1.3923,-1.3932,-1.3951,-1.394,-1.394,-1.3958,-1.3929,-1.3934,-1.3911,-1.3894,-1.3913,-1.3898,-1.3896,-1.3901,-1.3879,-1.3925,-1.3913,-1.3886,-1.3846,-1.3909,-1.3931,-1.3939,-1.3817,-1.3815,-1.3814,-1.3813,0,0,-1.4029,-1.4,-1.4008,-1.4003,-1.3985,-1.3991,-1.4009,-1.4007,-1.4012,-1.4006,-1.4019,-1.4027,-1.4002,-1.4,-1.3977,-1.3994,-1.4051,-1.3964,-1.3963,-1.3981,-1.4102,-1.4123,-1.4134,-1.4032,-1.4034,-1.4035,-1.4103,0,-1.4093,-1.4119,-1.4091,-1.4124,-1.4132,-1.4092,-1.4107,-1.4098,-1.4083,-1.4089,-1.4072,-1.4078,-1.4045,-1.4043,-1.4058,-1.4041,-1.4075,-1.4036,-1.4046,-1.4046,-1.405,-1.4145,-1.4166,-1.4231,-1.4112,-1.4113,-1.4114,0,-1.4171,-1.4168,-1.4202,-1.4184,-1.4186,-1.42,-1.4197,-1.4203,-1.4193,-1.4181,-1.4179,-1.4153,-1.4169,-1.4132,-1.4155,-1.4129,-1.4132,-1.4125,-1.4126,-1.4126,-1.4084,-1.4147,-1.4251,-1.4261,-1.4127,-1.4126,-1.4125,0,-1.4245,-1.425,-1.4271,-1.4269,-1.4247,-1.4258,-1.425,-1.4238,-1.424,-1.4238,-1.4239,-1.424,-1.424,-1.4242,-1.4216,-1.4191,-1.4243,-1.4203,-1.4235,-1.4235,-1.4247,-1.4246,-1.4352,-1.4249,-1.4249,-1.4249,-1.4249,0,-1.432,-1.4342,-1.4305,-1.4318,-1.4342,-1.431,-1.4336,-1.4324,-1.4314,-1.4325,-1.429,-1.4301,-1.4267,-1.4275,-1.4256,-1.4279,-1.4279,-1.4271,-1.4265,-1.4274,-1.4275,-1.4274,-1.4269,-1.4251,-1.4251,-1.425,-1.425,0,-1.4406,-1.4382,-1.4402,-1.4381,-1.4377,-1.4396,-1.4378,-1.439,-1.4374,-1.4388,-1.439,-1.4364,-1.4372,-1.4347,-1.4351,-1.4338,-1.4372,-1.4359,-1.4375,-1.4371,-1.4404,-1.4402,-1.4514,-1.4527,-1.4416,-1.4417,-1.4418,0,-1.4455,-1.4471,-1.4453,-1.4457,-1.4451,-1.4459,-1.4461,-1.4431,-1.4435,-1.4426,-1.444,-1.4445,-1.4447,-1.4462,-1.4444,-1.4448,-1.4435,-1.4474,-1.4435,-1.4444,-1.4436,-1.4435,-1.4437,-1.4482,-1.4483,-1.4484,-1.4485,0,-1.4545,-1.4532,-1.4536,-1.4536,-1.454,-1.4538,-1.4535,-1.4541,-1.4509,-1.4515,-1.4523,-1.4525,-1.453,-1.4536,-1.4536,-1.4529,-1.4502,-1.4498,-1.4506,-1.4514,-1.4523,-1.4519,-1.4397,-1.4495,-1.4494,-1.4493,-1.4493,-1.4493,-1.4614,-1.4627,-1.4616,-1.4622,-1.4617,-1.4615,-1.4625,-1.4611,-1.4617,-1.4618,-1.4601,-1.4612,-1.4604,-1.4602,-1.4598,-1.4607,-1.4589,-1.46,-1.4603,-1.4606,-1.4612,-1.4522,-1.4607,-1.4607,-1.4606,-1.4606,-1.4606,0,-1.4702,-1.4693,-1.4699,-1.4696,-1.4701,-1.4676,-1.4672,-1.4678,-1.4689,-1.4683,-1.4687,-1.4697,-1.4704,-1.4687,-1.4692,-1.4703,-1.4691,-1.4705,-1.4704,-1.4703,-1.4627,-1.462,-1.4714,-1.4714,-1.4714,-1.4714,-1.4714,-1.4714,-1.4748,-1.477,-1.4757,-1.4776,-1.4768,-1.4779,-1.4779,-1.4777,-1.4773,-1.4786,-1.4791,-1.478,-1.4771,-1.4775,-1.4781,-1.4776,-1.4779,-1.4797,-1.4789,-1.4718,-1.4708,-1.4698,-1.4691,-1.4798,-1.4799,-1.4863,-1.4864,-1.4864]},{"header":{"parameterUnit":"m.s-1","parameterCategory":1,"la1":30.2991,"la2":30.254,"lo1":-89.0895,"lo2":-89.0444,"dy":0.0017,"dx":0.0017,"nx":28,"ny":28,"refTime":"2025-09-01T21:00:00:Z","depth":0,"parameterNumber":3,"parameterNumberName":"V-component_of_WINDS"},"data":[0,0,0,0,0,0,0,0,0,0,0,0,0,0,0,0,0,0,0,0,0,0,0,0,0,0,0,0,0,0,0,0,0,0,0,0,0,0,0,0,0,0,0,0,0,0,0,0,0,0,0,0,0,0,0,0,0,0,2.1679,2.1678,0,2.1616,2.1615,2.1615,2.1625,2.1626,2.1627,2.1628,2.1558,2.1555,2.1553,0,0,0,0,0,0,0,0,0,0,0,0,0,2.1803,2.18,2.1679,2.1678,2.1677,2.1616,2.1615,2.1614,2.1624,2.1626,2.1627,2.1628,2.1559,2.1556,2.1552,0,0,0,0,0,0,0,0,0,0,0,0,0,2.1745,2.18,2.1679,2.1675,2.1674,2.1616,2.1615,2.1614,2.1624,2.1626,2.1627,2.1629,2.156,2.1556,2.1552,2.1492,0,0,2.1539,2.1537,0,0,0,0,0,0,0,0,2.1748,2.1741,2.1676,2.1675,2.1674,2.163,2.1633,2.1573,2.1624,2.1643,2.1628,2.163,2.158,2.1575,2.1559,2.1489,2.1486,2.1538,2.1536,2.1534,2.1533,0,0,0,0,0,0,0,2.1752,2.1743,2.1654,2.1675,2.1674,2.1675,2.1668,2.1622,2.1603,2.1641,2.1642,2.1635,2.158,2.1563,2.1557,2.1485,2.1538,2.1535,2.1532,2.153,2.1362,2.136,0,0,0,0,0,0,2.1758,2.1747,2.1656,2.1652,2.1716,2.1671,2.1664,2.1642,2.1604,2.1599,2.1633,2.1635,2.157,2.1562,2.1555,2.1481,2.1534,2.153,2.1527,2.1363,2.1361,2.1359,0,0,0,0,0,0,2.1761,2.175,2.1658,2.1699,2.1688,2.1667,2.1643,2.164,2.1623,2.1598,2.1594,2.162,2.1571,2.1561,2.1508,2.1479,2.1528,2.1524,2.1366,2.1363,2.136,2.1335,0,0,0,0,0,0,2.1764,2.1751,2.1729,2.1699,2.1686,2.1614,2.1641,2.1638,2.1617,2.1619,2.1584,2.158,2.1571,2.1514,2.1504,2.1474,2.1521,2.1368,2.1364,2.1361,2.1338,2.1331,2.1326,0,0,0,0,0,2.1769,2.1724,2.1728,2.1717,2.1658,2.1612,2.1604,2.1597,2.1614,2.1591,2.1575,2.1581,2.1485,2.1509,2.1497,2.1466,2.137,2.1365,2.1361,2.1341,2.1333,2.1326,0,0,0,0,0,0,2.1749,2.172,2.1724,2.1668,2.1643,2.1614,2.1585,2.1589,2.1557,2.156,2.155,2.1542,2.1488,2.1472,2.1499,2.1405,2.1429,2.1422,2.1418,2.141,2.1404,2.1408,2.1517,0,0,0,0,0,2.1739,2.1706,2.1681,2.1634,2.1621,2.1605,2.1585,2.1582,2.1554,2.1543,2.1522,2.1494,2.1457,2.1433,2.1398,2.1336,2.1328,2.1309,2.1303,2.1298,2.1291,2.1256,2.1247,2.1345,2.1345,2.1345,0,0,2.1716,2.1696,2.1675,2.1629,2.1609,2.1573,2.1596,2.1557,2.1529,2.1536,2.1485,2.1469,2.1436,2.1379,2.1352,2.1363,2.1263,2.1293,2.1289,2.1285,2.1251,2.1242,2.1233,2.1342,2.1343,2.1343,0,0,2.1656,2.1639,2.1597,2.1577,2.1547,2.1536,2.1526,2.1497,2.1487,2.1436,2.144,2.1406,2.1344,2.132,2.13,2.1231,2.1235,2.122,2.1187,2.1153,2.1145,2.1138,2.1112,2.1103,2.1214,2.1214,2.1214,0,2.1631,2.1579,2.1575,2.1535,2.1514,2.1521,2.1477,2.1457,2.1416,2.1401,2.1415,2.1336,2.1315,2.1251,2.1234,2.1218,2.1205,2.1223,2.1147,2.114,2.1133,2.1108,2.1099,2.1212,2.1213,2.1213,2.1213,0,2.1549,2.1512,2.1482,2.1444,2.142,2.1378,2.1366,2.1342,2.1341,2.1329,2.1276,2.1251,2.121,2.1195,2.1193,2.113,2.1138,2.115,2.1173,2.1122,2.1098,2.1089,2.121,2.121,2.1211,2.1211,0,0,2.1473,2.1434,2.1423,2.1406,2.1373,2.1344,2.1302,2.1264,2.1243,2.1214,2.1178,2.1125,2.1135,2.1112,2.1108,2.1078,2.1023,2.1093,2.1092,2.1079,2.0951,2.0941,2.093,2.1027,2.1025,2.1023,2.0953,0,2.1409,2.1337,2.1332,2.1267,2.1232,2.1238,2.1201,2.1176,2.1164,2.1131,2.1117,2.1079,2.1097,2.1083,2.1054,2.1036,2.0997,2.1042,2.099,2.0989,2.0997,2.0918,2.0907,2.0842,2.0944,2.0942,2.0941,0,2.1324,2.1294,2.1226,2.1198,2.1183,2.115,2.1115,2.1084,2.1055,2.1048,2.1023,2.1023,2.0978,2.1005,2.0942,2.0973,2.0951,2.094,2.0937,2.093,2.096,2.0907,2.0821,2.081,2.0927,2.0928,2.0929,0,2.1274,2.1217,2.1168,2.1153,2.112,2.1096,2.1081,2.1054,2.1032,2.1,2.0985,2.0948,2.0927,2.0898,2.0887,2.0908,2.0824,2.085,2.0815,2.0815,2.0795,2.0796,2.0703,2.0785,2.0785,2.0785,2.0786,0,2.1201,2.1158,2.1145,2.1115,2.1067,2.1061,2.1013,2.0999,2.0975,2.094,2.0943,2.0911,2.0899,2.0864,2.0856,2.0804,2.0795,2.0786,2.0784,2.0785,2.0786,2.077,2.0773,2.0783,2.0783,2.0784,2.0784,0,2.1136,2.1126,2.1073,2.1046,2.1038,2.1003,2.0979,2.0949,2.0938,2.0895,2.0884,2.0866,2.0825,2.0812,2.0761,2.0756,2.0695,2.0697,2.0705,2.0704,2.0669,2.0671,2.056,2.0544,2.0638,2.0637,2.0637,0,2.1089,2.1057,2.1027,2.1005,2.0989,2.0954,2.0931,2.0924,2.09,2.0865,2.0838,2.0798,2.0765,2.0699,2.068,2.0642,2.0642,2.0606,2.0636,2.0638,2.0639,2.0641,2.0636,2.0599,2.0598,2.0597,2.0597,0,2.1007,2.1004,2.0972,2.0938,2.0911,2.0883,2.0856,2.0838,2.0827,2.0799,2.0758,2.0733,2.0683,2.0642,2.0603,2.0585,2.0588,2.0588,2.0577,2.0577,2.0582,2.0577,2.0687,2.059,2.059,2.0591,2.0591,2.0592,2.0949,2.092,2.0894,2.0858,2.0837,2.0812,2.0783,2.0768,2.0735,2.0694,2.0692,2.0647,2.0618,2.0566,2.0546,2.051,2.052,2.0505,2.0501,2.0497,2.0493,2.0589,2.0503,2.0503,2.0503,2.0503,2.0504,0,2.0865,2.0849,2.0816,2.078,2.0751,2.0759,2.0729,2.0704,2.0665,2.0639,2.0607,2.0559,2.052,2.0498,2.0458,2.0433,2.0433,2.0423,2.0423,2.0419,2.0487,2.05,2.0423,2.0423,2.0423,2.0423,2.0423,2.0423,2.0818,2.0769,2.0763,2.0703,2.0687,2.0644,2.0627,2.0603,2.0582,2.0529,2.0497,2.0484,2.0459,2.0417,2.0381,2.0375,2.0359,2.0347,2.0342,2.0406,2.0414,2.0422,2.0434,2.0344,2.0344,2.0277,2.0276,2.0276]}]]